Regional Weather Roundup
Issued by NWS

Home | Current Version | Previous Version | Graphics & Text | Print | Product List | Glossary Off
Versions: 1 2 3 4 5 6 7 8 9 10 11 12 13 14 15 16 17 18 19 20 21 22 23 24 25 26 27 28 29 30 31 32 33 34 35 36 37 38 39 40 41 42 43 44 45 46 47 48 49 50

000
ASUS43 KOAX 012110
RWRNE

WEATHER ROUNDUP FOR NEBRASKA
NATIONAL WEATHER SERVICE OMAHA NE
400 PM CDT SAT AUG 01 2015

NOTES: SATELLITE DATA IS BEING USED TO AUGMENT CLOUD COVER ABOVE
       12000 FEET.
       "FAIR" INDICATES FEW OR NO CLOUDS BELOW 12,000 FEET WITH NO
       SIGNIFICANT WEATHER AND/OR OBSTRUCTIONS TO VISIBILITY.

  * THESE STATIONS DO NOT REPORT WEATHER SUCH AS RAIN...SNOW OR FOG.

NEZ001>004-019>022-054>056-012200-
NEBRASKA PANHANDLE

CITY           SKY/WX    TMP DP  RH WIND       PRES   REMARKS
SCOTTSBLUFF    MOSUNNY   95  58  28 NE9       30.00F HX  94
ALLIANCE       LGT RAIN  80  65  59 SE21G29   30.01F
CHADRON        SUNNY     94  59  31 E9        29.95F HX  93
KIMBALL        MOSUNNY   85  49  29 S3        30.06F
SIDNEY         MOSUNNY   95  47  19 SW9       30.04F HX  91
$$

NEZ057>060-069>072-079>082-012200-
SOUTHWEST NEBRASKA

CITY           SKY/WX    TMP DP  RH WIND       PRES   REMARKS
NORTH PLATTE   SUNNY     83  59  44 E17G25    30.05F
IMPERIAL       MOSUNNY   92  51  24 SE16      30.02F
LEXINGTON      SUNNY     85  57  37 E17       30.05F
MCCOOK         MOSUNNY   92  61  35 E12       30.02F HX  92
OGALLALA       SUNNY     87  64  46 SE18G25   30.04F
$$

NEZ005>010-023>029-035>040-094-012200-
NORTH CENTRAL NEBRASKA

CITY           SKY/WX    TMP DP  RH WIND       PRES   REMARKS
VALENTINE      SUNNY     83  56  39 S28G35    29.98S
AINSWORTH      MOSUNNY   82  58  43 S23       29.97S
BROKEN BOW     PTSUNNY   81  52  36 E13G22    30.05F
O`NEILL        MOSUNNY   85  59  40 S9        29.95F
ORD            CLOUDY    77  58  51 S6        30.01F
THEDFORD       TSTM      72  60  66 S3        30.07F
$$

NEZ041-046>049-061>064-073>077-083>087-012200-
SOUTH CENTRAL NEBRASKA

CITY           SKY/WX    TMP DP  RH WIND       PRES   REMARKS
GRAND ISLAND   MOSUNNY   78  59  51 N9        30.06F
AURORA         MOSUNNY   79  62  56 N7        30.05F
HASTINGS       SUNNY     83  63  50 N14       30.05F
HEBRON         MOSUNNY   89  61  37 CALM      30.01F
HOLDREGE       SUNNY     86  59  40 E5        30.06F
KEARNEY *      SUNNY     84  59  42 NE15      30.06F
YORK           MOSUNNY   81  64  57 N3        30.04F
$$

NEZ011>018-030>034-042>045-012200-
NORTHEAST NEBRASKA

CITY           SKY/WX    TMP DP  RH WIND       PRES   REMARKS
NORFOLK        CLOUDY    87  54  32 SW9       29.95F
ALBION         CLOUDY    80  59  48 SW7       29.96F
BLAIR          CLOUDY    77  69  74 SW8       29.99F
COLUMBUS *     CLOUDY    79  61  53 SW9       29.99F
FREMONT        CLOUDY    81  63  53 SW15      29.99F
TEKAMAH        CLOUDY    81  70  69 S5        29.97F
WAYNE          CLOUDY    82  64  54 CALM      29.96F
$$

NEZ050>053-065>068-078-088>093-012200-
SOUTHEAST NEBRASKA

CITY           SKY/WX    TMP DP  RH WIND       PRES   REMARKS
LINCOLN        MOSUNNY   88  63  43 N14       30.02F
OMAHA EPPLEY   CLOUDY    82  68  62 SW8       29.98F
BEATRICE       MOSUNNY   88  70  56 S8        29.99F HX  93
FALLS CITY     PTSUNNY   84  72  67 SW6       29.98F
NEBRASKA CITY  PTSUNNY   82  67  59 SW6       29.99F
PLATTSMOUTH    CLOUDY    81  67  62 SW6       30.00F
$$

NEZ044-045-051>053-067-012200-
OMAHA AREA

CITY           SKY/WX    TMP DP  RH WIND       PRES   REMARKS
OMAHA EPPLEY   CLOUDY    82  68  62 SW8       29.98F
BLAIR          CLOUDY    77  69  74 SW8       29.99F
FREMONT        CLOUDY    81  63  53 SW15      29.99F
MILLARD        CLOUDY    81  70  68 SW7       29.99F
OFFUTT AFB     CLOUDY    82  70  68 SW9       29.98
PLATTSMOUTH    CLOUDY    81  67  62 SW6       30.00F
WAHOO          FAIR      83  65  56 W6        29.99F
$$


USA.gov is the U.S. government's official web portal to all federal, state and local government web resources and services.